{"data":{"norad_id":60737,"epoch":"2026-09-21T18:50:46.864032Z","epoch_age_seconds":77096,"freshness":"FRESH","line1":"1 60737U 24152T   26264.78526463 -.00000164  00000+0  62772-5 0  9998","line2":"2 60737  53.1590  75.4813 0001312  75.9420 284.1728 15.34388166116904","mean_motion":15.34388166,"eccentricity":0.0001312,"inclination_deg":53.159,"raan_deg":75.4813,"arg_perigee_deg":75.942,"mean_anomaly_deg":284.1728,"bstar":6.2772e-6,"rev_number":11690,"period_min":93.848481884081,"perigee_km":461.84089072081,"apogee_km":463.63593642933,"semimajor_km":6840.8754135751,"source":"CELESTRAK","updated_at":"2026-09-22T09:00:49.280657Z"}}